Year,Month,Day,Hour,Minute,Value (Times are PST for temperature in C)
2015,07,04,00,00,20.40
2015,07,04,00,01,20.40
2015,07,04,00,02,20.40
2015,07,04,00,03,20.40
2015,07,04,00,04,20.40
2015,07,04,00,05,20.40
2015,07,04,00,06,20.30
2015,07,04,00,07,20.30
2015,07,04,00,08,20.30
2015,07,04,00,09,20.20
2015,07,04,00,10,20.20
2015,07,04,00,11,20.20
2015,07,04,00,12,20.10
2015,07,04,00,13,20.10
2015,07,04,00,14,20.10
2015,07,04,00,15,20.10
2015,07,04,00,16,20.10
2015,07,04,00,17,20.20
2015,07,04,00,18,20.20
2015,07,04,00,19,20.20
2015,07,04,00,20,20.20
2015,07,04,00,21,20.10
2015,07,04,00,22,20.10
2015,07,04,00,23,20.00
2015,07,04,00,24,20.00
2015,07,04,00,25,19.90
2015,07,04,00,26,19.90
2015,07,04,00,27,19.90
2015,07,04,00,28,19.90
2015,07,04,00,29,19.80
2015,07,04,00,30,19.80
2015,07,04,00,31,19.80
2015,07,04,00,32,19.80
2015,07,04,00,33,19.80
2015,07,04,00,34,19.80
2015,07,04,00,35,19.70
2015,07,04,00,36,19.70
2015,07,04,00,37,19.70
2015,07,04,00,38,19.70
2015,07,04,00,39,19.70
2015,07,04,00,40,19.60
2015,07,04,00,41,19.60
2015,07,04,00,42,19.60
2015,07,04,00,43,19.60
2015,07,04,00,44,19.60
2015,07,04,00,45,19.60
2015,07,04,00,46,19.50
2015,07,04,00,47,19.50
2015,07,04,00,48,19.50
2015,07,04,00,49,19.50
2015,07,04,00,50,19.40
2015,07,04,00,51,19.40
2015,07,04,00,52,19.40
2015,07,04,00,53,19.40
2015,07,04,00,54,19.40
2015,07,04,00,55,19.40
2015,07,04,00,56,19.40
2015,07,04,00,57,19.30
2015,07,04,00,58,19.30
2015,07,04,00,59,19.30
2015,07,04,01,00,19.30
2015,07,04,01,01,19.30
2015,07,04,01,02,19.30
2015,07,04,01,03,19.30
2015,07,04,01,04,19.30
2015,07,04,01,05,19.20
2015,07,04,01,06,19.20
2015,07,04,01,07,19.20
2015,07,04,01,08,19.20
2015,07,04,01,09,19.20
2015,07,04,01,10,19.20
2015,07,04,01,11,19.10
2015,07,04,01,12,19.10
2015,07,04,01,13,19.10
2015,07,04,01,14,19.10
2015,07,04,01,15,19.10
2015,07,04,01,16,19.10
2015,07,04,01,17,19.10
2015,07,04,01,18,19.10
2015,07,04,01,19,19.10
2015,07,04,01,20,19.10
2015,07,04,01,21,19.10
2015,07,04,01,22,19.10
2015,07,04,01,23,19.10
2015,07,04,01,24,19.10
2015,07,04,01,25,19.10
2015,07,04,01,26,19.00
2015,07,04,01,27,19.00
2015,07,04,01,28,19.00
2015,07,04,01,29,19.00
2015,07,04,01,30,19.00
2015,07,04,01,31,19.00
2015,07,04,01,32,18.90
2015,07,04,01,33,18.90
2015,07,04,01,34,18.90
2015,07,04,01,35,18.90
2015,07,04,01,36,18.90
2015,07,04,01,37,18.90
2015,07,04,01,38,18.90
2015,07,04,01,39,18.90
2015,07,04,01,40,18.80
2015,07,04,01,41,18.80
2015,07,04,01,42,18.80
2015,07,04,01,43,18.80
2015,07,04,01,44,18.80
2015,07,04,01,45,18.80
2015,07,04,01,46,18.70
2015,07,04,01,47,18.70
2015,07,04,01,48,18.70
2015,07,04,01,49,18.70
2015,07,04,01,50,18.70
2015,07,04,01,51,18.60
2015,07,04,01,52,18.60
2015,07,04,01,53,18.60
2015,07,04,01,54,18.60
2015,07,04,01,55,18.60
2015,07,04,01,56,18.60
2015,07,04,01,57,18.60
2015,07,04,01,58,18.60
2015,07,04,01,59,18.60
2015,07,04,02,00,18.60
2015,07,04,02,01,18.60
2015,07,04,02,02,18.60
2015,07,04,02,03,18.70
2015,07,04,02,04,18.70
2015,07,04,02,05,18.70
2015,07,04,02,06,18.60
2015,07,04,02,07,18.60
2015,07,04,02,08,18.60
2015,07,04,02,09,18.60
2015,07,04,02,10,18.60
2015,07,04,02,11,18.50
2015,07,04,02,12,18.50
2015,07,04,02,13,18.50
2015,07,04,02,14,18.50
2015,07,04,02,15,18.50
2015,07,04,02,16,18.50
2015,07,04,02,17,18.50
2015,07,04,02,18,18.50
2015,07,04,02,19,18.50
2015,07,04,02,20,18.50
2015,07,04,02,21,18.40
2015,07,04,02,22,18.40
2015,07,04,02,23,18.40
2015,07,04,02,24,18.40
2015,07,04,02,25,18.40
2015,07,04,02,26,18.40
2015,07,04,02,27,18.40
2015,07,04,02,28,18.30
2015,07,04,02,29,18.30
2015,07,04,02,30,18.30
2015,07,04,02,31,18.30
2015,07,04,02,32,18.20
2015,07,04,02,33,18.20
2015,07,04,02,34,18.20
2015,07,04,02,35,18.20
2015,07,04,02,36,18.20
2015,07,04,02,37,18.20
2015,07,04,02,38,18.20
2015,07,04,02,39,18.20
2015,07,04,02,40,18.10
2015,07,04,02,41,18.10
2015,07,04,02,42,18.20
2015,07,04,02,43,18.20
2015,07,04,02,44,18.10
2015,07,04,02,45,18.10
2015,07,04,02,46,18.10
2015,07,04,02,47,18.10
2015,07,04,02,48,18.10
2015,07,04,02,49,18.00
2015,07,04,02,50,18.00
2015,07,04,02,51,17.90
2015,07,04,02,52,17.90
2015,07,04,02,53,17.90
2015,07,04,02,54,17.80
2015,07,04,02,55,17.80
2015,07,04,02,56,17.70
2015,07,04,02,57,17.70
2015,07,04,02,58,17.60
2015,07,04,02,59,17.60
2015,07,04,03,00,17.60
2015,07,04,03,01,17.50
2015,07,04,03,02,17.50
2015,07,04,03,03,17.50
2015,07,04,03,04,17.60
2015,07,04,03,05,17.60
2015,07,04,03,06,17.60
2015,07,04,03,07,17.60
2015,07,04,03,08,17.60
2015,07,04,03,09,17.70
2015,07,04,03,10,17.70
2015,07,04,03,11,17.70
2015,07,04,03,12,17.70
2015,07,04,03,13,17.70
2015,07,04,03,14,17.70
2015,07,04,03,15,17.70
2015,07,04,03,16,17.70
2015,07,04,03,17,17.70
2015,07,04,03,18,17.80
2015,07,04,03,19,17.80
2015,07,04,03,20,17.80
2015,07,04,03,21,17.80
2015,07,04,03,22,17.80
2015,07,04,03,23,17.80
2015,07,04,03,24,17.80
2015,07,04,03,25,17.90
2015,07,04,03,26,17.90
2015,07,04,03,27,17.90
2015,07,04,03,28,17.90
2015,07,04,03,29,17.90
2015,07,04,03,30,17.90
2015,07,04,03,31,17.90
2015,07,04,03,32,17.90
2015,07,04,03,33,17.90
2015,07,04,03,34,17.90
2015,07,04,03,35,17.90
2015,07,04,03,36,17.90
2015,07,04,03,37,17.90
2015,07,04,03,38,17.90
2015,07,04,03,39,17.90
2015,07,04,03,40,17.90
2015,07,04,03,41,17.80
2015,07,04,03,42,17.80
2015,07,04,03,43,17.80
2015,07,04,03,44,17.80
2015,07,04,03,45,17.70
2015,07,04,03,46,17.60
2015,07,04,03,47,17.50
2015,07,04,03,48,17.40
2015,07,04,03,49,17.30
2015,07,04,03,50,17.20
2015,07,04,03,51,17.20
2015,07,04,03,52,17.10
2015,07,04,03,53,17.10
2015,07,04,03,54,17.10
2015,07,04,03,55,17.10
2015,07,04,03,56,17.20
2015,07,04,03,57,17.20
2015,07,04,03,58,17.20
2015,07,04,03,59,17.20
2015,07,04,04,00,17.10
2015,07,04,04,01,17.10
2015,07,04,04,02,17.10
2015,07,04,04,03,17.00
2015,07,04,05,02,16.30
2015,07,04,05,03,16.30
2015,07,04,05,04,16.30
2015,07,04,05,05,16.30
2015,07,04,05,06,16.30
2015,07,04,05,07,16.30
2015,07,04,05,08,16.30
2015,07,04,05,09,16.20
2015,07,04,05,10,16.20
2015,07,04,05,11,16.20
2015,07,04,05,12,16.10
2015,07,04,05,13,16.10
2015,07,04,05,14,16.10
2015,07,04,05,15,16.00
2015,07,04,05,16,16.00
2015,07,04,05,17,16.00
2015,07,04,05,18,16.10
2015,07,04,05,19,16.10
2015,07,04,05,20,16.10
2015,07,04,05,21,16.10
2015,07,04,05,22,16.20
2015,07,04,05,23,16.30
2015,07,04,05,24,16.30
2015,07,04,05,25,16.40
2015,07,04,05,26,16.40
2015,07,04,05,27,16.40
2015,07,04,05,28,16.40
2015,07,04,05,29,16.40
2015,07,04,05,30,16.30
2015,07,04,05,31,16.30
2015,07,04,05,32,16.20
2015,07,04,05,33,16.20
2015,07,04,05,34,16.10
2015,07,04,05,35,16.00
2015,07,04,05,36,16.00
2015,07,04,05,37,15.90
2015,07,04,05,38,15.90
2015,07,04,05,39,15.90
2015,07,04,05,40,15.80
2015,07,04,05,41,15.80
2015,07,04,05,42,15.80
2015,07,04,05,43,15.80
2015,07,04,05,44,15.80
2015,07,04,05,45,15.80
2015,07,04,05,46,15.80
2015,07,04,05,47,15.80
2015,07,04,05,48,15.80
2015,07,04,05,49,15.80
2015,07,04,05,50,15.80
2015,07,04,05,51,15.80
2015,07,04,05,52,15.80
2015,07,04,05,53,15.80
2015,07,04,05,54,15.80
2015,07,04,05,55,15.80
2015,07,04,05,56,15.90
2015,07,04,05,57,15.90
2015,07,04,05,58,15.90
2015,07,04,05,59,15.90
2015,07,04,06,00,15.90
2015,07,04,06,01,16.00
2015,07,04,06,02,16.00
2015,07,04,06,03,16.00
2015,07,04,06,04,16.10
2015,07,04,06,05,16.10
2015,07,04,06,06,16.10
2015,07,04,06,07,16.10
2015,07,04,06,08,16.20
2015,07,04,06,09,16.20
2015,07,04,06,10,16.20
2015,07,04,06,11,16.20
2015,07,04,06,12,16.20
2015,07,04,06,13,16.20
2015,07,04,06,14,16.20
2015,07,04,06,15,16.20
2015,07,04,06,16,16.20
2015,07,04,06,17,16.20
2015,07,04,06,18,16.30
2015,07,04,06,19,16.30
2015,07,04,06,20,16.30
2015,07,04,06,21,16.30
2015,07,04,06,22,16.30
2015,07,04,06,23,16.30
2015,07,04,06,24,16.30
2015,07,04,06,25,16.40
2015,07,04,06,26,16.40
2015,07,04,06,27,16.40
2015,07,04,06,28,16.40
2015,07,04,06,29,16.40
2015,07,04,06,30,16.40
2015,07,04,06,31,16.40
2015,07,04,06,32,16.40
2015,07,04,06,33,16.50
2015,07,04,06,34,16.50
2015,07,04,06,35,16.60
2015,07,04,06,36,16.60
2015,07,04,06,37,16.60
2015,07,04,06,38,16.60
2015,07,04,06,39,16.60
2015,07,04,06,40,16.60
2015,07,04,06,41,16.70
2015,07,04,06,42,16.70
2015,07,04,06,43,16.70
2015,07,04,06,44,16.70
2015,07,04,06,45,16.70
2015,07,04,06,46,16.70
2015,07,04,06,47,16.70
2015,07,04,06,48,16.80
2015,07,04,06,49,16.80
2015,07,04,06,50,16.80
2015,07,04,06,51,16.80
2015,07,04,06,52,16.80
2015,07,04,06,53,16.90
2015,07,04,06,54,16.90
2015,07,04,06,55,16.90
2015,07,04,06,56,16.90
2015,07,04,06,57,17.00
2015,07,04,06,58,17.00
2015,07,04,06,59,17.10
2015,07,04,07,00,17.10
2015,07,04,07,01,17.10
2015,07,04,07,02,17.10
2015,07,04,07,03,17.10
2015,07,04,07,04,17.10
2015,07,04,07,05,17.10
2015,07,04,07,06,17.10
2015,07,04,07,07,17.10
2015,07,04,07,08,17.20
2015,07,04,07,09,17.20
2015,07,04,07,10,17.20
2015,07,04,07,11,17.30
2015,07,04,07,12,17.30
2015,07,04,07,13,17.40
2015,07,04,07,14,17.40
2015,07,04,07,15,17.50
2015,07,04,07,16,17.50
2015,07,04,07,17,17.50
2015,07,04,07,18,17.50
2015,07,04,07,19,17.50
2015,07,04,07,20,17.50
2015,07,04,07,21,17.50
2015,07,04,07,22,17.40
2015,07,04,07,23,17.40
2015,07,04,07,24,17.40
2015,07,04,07,25,17.40
2015,07,04,07,26,17.40
2015,07,04,07,27,17.40
2015,07,04,07,28,17.40
2015,07,04,07,29,17.50
2015,07,04,07,30,17.60
2015,07,04,07,31,17.70
2015,07,04,07,32,17.70
2015,07,04,07,33,17.70
2015,07,04,07,34,17.80
2015,07,04,07,35,17.90
2015,07,04,07,36,17.90
2015,07,04,07,37,17.90
2015,07,04,07,38,17.90
2015,07,04,07,39,17.90
2015,07,04,07,40,17.90
2015,07,04,07,41,17.90
2015,07,04,07,42,18.00
2015,07,04,07,43,18.00
2015,07,04,07,44,18.10
2015,07,04,07,45,18.10
2015,07,04,07,46,18.20
2015,07,04,07,47,18.20
2015,07,04,07,48,18.20
2015,07,04,07,49,18.20
2015,07,04,07,50,18.30
2015,07,04,07,51,18.30
2015,07,04,07,52,18.30
2015,07,04,07,53,18.30
2015,07,04,07,54,18.30
2015,07,04,07,55,18.40
2015,07,04,07,56,18.40
2015,07,04,07,57,18.40
2015,07,04,07,58,18.50
2015,07,04,07,59,18.60
2015,07,04,08,00,18.70
2015,07,04,08,01,18.70
2015,07,04,08,02,18.80
2015,07,04,08,03,18.80
2015,07,04,08,04,18.90
2015,07,04,08,05,18.90
2015,07,04,08,06,18.90
2015,07,04,08,07,18.90
2015,07,04,08,08,19.00
2015,07,04,08,09,19.00
2015,07,04,08,10,19.00
2015,07,04,08,11,19.10
2015,07,04,08,12,19.20
2015,07,04,08,13,19.20
2015,07,04,08,14,19.30
2015,07,04,08,15,19.30
2015,07,04,08,16,19.30
2015,07,04,08,17,19.30
2015,07,04,08,18,19.30
2015,07,04,08,19,19.30
2015,07,04,08,20,19.30
2015,07,04,08,21,19.40
2015,07,04,08,22,19.50
2015,07,04,08,23,19.50
2015,07,04,08,24,19.60
2015,07,04,08,25,19.60
2015,07,04,08,26,19.60
2015,07,04,08,27,19.60
2015,07,04,08,28,19.60
2015,07,04,08,29,19.60
2015,07,04,08,30,19.60
2015,07,04,08,31,19.60
2015,07,04,08,32,19.70
2015,07,04,08,33,19.80
2015,07,04,08,34,19.80
2015,07,04,08,35,19.80
2015,07,04,08,36,19.80
2015,07,04,08,37,19.90
2015,07,04,08,38,19.90
2015,07,04,08,39,20.00
2015,07,04,08,40,20.00
2015,07,04,08,41,20.10
2015,07,04,08,42,20.10
2015,07,04,08,43,20.20
2015,07,04,08,44,20.20
2015,07,04,08,45,20.20
2015,07,04,08,46,20.20
2015,07,04,08,47,20.20
2015,07,04,08,48,20.30
2015,07,04,08,49,20.30
2015,07,04,08,50,20.30
2015,07,04,08,51,20.30
2015,07,04,08,52,20.20
2015,07,04,08,53,20.20
2015,07,04,08,54,20.20
2015,07,04,08,55,20.30
2015,07,04,08,56,20.40
2015,07,04,08,57,20.50
2015,07,04,08,58,20.50
2015,07,04,08,59,20.40
2015,07,04,09,00,20.40
2015,07,04,09,01,20.30
2015,07,04,09,02,20.30
2015,07,04,09,03,20.30
2015,07,04,09,04,20.40
2015,07,04,09,05,20.40
2015,07,04,09,06,20.50
2015,07,04,09,07,20.50
2015,07,04,09,08,20.60
2015,07,04,09,09,20.60
2015,07,04,09,10,20.60
2015,07,04,09,11,20.60
2015,07,04,09,12,20.70
2015,07,04,09,13,20.70
2015,07,04,09,14,20.70
2015,07,04,09,15,20.60
2015,07,04,09,16,20.60
2015,07,04,09,17,20.70
2015,07,04,09,18,20.70
2015,07,04,09,19,20.70
2015,07,04,09,20,20.80
2015,07,04,09,21,20.90
2015,07,04,09,22,20.90
2015,07,04,09,23,20.90
2015,07,04,09,24,21.00
2015,07,04,09,25,21.00
2015,07,04,09,26,21.00
2015,07,04,09,27,21.10
2015,07,04,09,28,21.10
2015,07,04,09,29,21.10
2015,07,04,09,30,21.10
2015,07,04,09,31,21.10
2015,07,04,09,32,21.00
2015,07,04,09,33,21.00
2015,07,04,09,34,21.00
2015,07,04,09,35,21.00
2015,07,04,09,36,21.00
2015,07,04,09,37,21.00
2015,07,04,09,38,21.00
2015,07,04,09,39,21.00
2015,07,04,09,40,21.00
2015,07,04,09,41,21.10
2015,07,04,09,42,21.10
2015,07,04,09,43,21.20
2015,07,04,09,44,21.30
2015,07,04,09,45,21.40
2015,07,04,09,46,21.40
2015,07,04,09,47,21.40
2015,07,04,09,48,21.40
2015,07,04,09,49,21.40
2015,07,04,09,50,21.50
2015,07,04,09,51,21.50
2015,07,04,09,52,21.50
2015,07,04,09,53,21.60
2015,07,04,09,54,21.70
2015,07,04,09,55,21.70
2015,07,04,09,56,21.70
2015,07,04,09,57,21.80
2015,07,04,09,58,21.80
2015,07,04,09,59,21.80
2015,07,04,10,00,21.80
2015,07,04,10,01,21.80
2015,07,04,10,02,21.90
2015,07,04,10,03,21.90
2015,07,04,10,04,22.00
2015,07,04,10,05,22.10
2015,07,04,10,06,22.20
2015,07,04,10,07,22.30
2015,07,04,10,08,22.30
2015,07,04,10,09,22.30
2015,07,04,10,10,22.30
2015,07,04,10,11,22.30
2015,07,04,10,12,22.30
2015,07,04,10,13,22.30
2015,07,04,10,14,22.30
2015,07,04,10,15,22.30
2015,07,04,10,16,22.30
2015,07,04,10,17,22.30
2015,07,04,10,18,22.40
2015,07,04,10,19,22.50
2015,07,04,10,20,22.50
2015,07,04,10,21,22.60
2015,07,04,10,22,22.60
2015,07,04,10,23,22.60
2015,07,04,10,24,22.70
2015,07,04,10,25,22.70
2015,07,04,10,26,22.70
2015,07,04,10,27,22.80
2015,07,04,10,28,22.80
2015,07,04,10,29,22.80
2015,07,04,10,30,22.80
2015,07,04,10,31,22.90
2015,07,04,10,32,22.90
2015,07,04,10,33,22.90
2015,07,04,10,34,22.90
2015,07,04,10,35,23.00
2015,07,04,10,36,23.10
2015,07,04,10,37,23.10
2015,07,04,10,38,23.10
2015,07,04,10,39,23.20
2015,07,04,10,40,23.20
2015,07,04,10,41,23.20
2015,07,04,10,42,23.30
2015,07,04,10,43,23.30
2015,07,04,10,44,23.30
2015,07,04,10,45,23.30
2015,07,04,10,46,23.30
2015,07,04,10,47,23.40
2015,07,04,10,48,23.50
2015,07,04,10,49,23.60
2015,07,04,10,50,23.70
2015,07,04,10,51,23.70
2015,07,04,10,52,23.80
2015,07,04,10,53,23.90
2015,07,04,10,54,24.00
2015,07,04,10,55,24.00
2015,07,04,10,56,24.00
2015,07,04,10,57,24.00
2015,07,04,10,58,24.10
2015,07,04,10,59,24.10
2015,07,04,11,00,24.20
2015,07,04,11,01,24.20
2015,07,04,11,02,24.20
2015,07,04,11,03,24.30
2015,07,04,11,04,24.40
2015,07,04,11,05,24.50
2015,07,04,11,06,24.60
2015,07,04,11,07,24.70
2015,07,04,11,08,24.70
2015,07,04,11,09,24.80
2015,07,04,11,10,24.80
2015,07,04,11,11,24.80
2015,07,04,11,12,24.70
2015,07,04,11,13,24.60
2015,07,04,11,14,24.50
2015,07,04,11,15,24.50
2015,07,04,11,16,24.40
2015,07,04,11,17,24.50
2015,07,04,11,18,24.40
2015,07,04,11,19,24.30
2015,07,04,11,20,24.30
2015,07,04,11,21,24.30
2015,07,04,11,22,24.30
2015,07,04,11,23,24.30
2015,07,04,11,24,24.30
2015,07,04,11,25,24.20
2015,07,04,11,26,24.20
2015,07,04,11,27,24.30
2015,07,04,11,28,24.20
2015,07,04,11,29,24.20
2015,07,04,11,30,24.20
2015,07,04,11,31,24.20
2015,07,04,11,32,24.20
2015,07,04,11,33,24.20
2015,07,04,11,34,24.30
2015,07,04,11,35,24.20
2015,07,04,11,36,24.10
2015,07,04,11,37,24.00
2015,07,04,11,38,23.90
2015,07,04,11,39,23.90
2015,07,04,11,40,23.90
2015,07,04,11,41,24.00
2015,07,04,11,42,24.00
2015,07,04,11,43,24.10
2015,07,04,11,44,24.20
2015,07,04,11,45,24.20
2015,07,04,11,46,24.10
2015,07,04,11,47,24.10
2015,07,04,11,48,24.10
2015,07,04,11,49,24.20
2015,07,04,11,50,24.20
2015,07,04,11,51,24.20
2015,07,04,11,52,24.20
2015,07,04,11,53,24.30
2015,07,04,11,54,24.30
2015,07,04,11,55,24.30
2015,07,04,11,56,24.40
2015,07,04,11,57,24.40
2015,07,04,11,58,24.50
2015,07,04,11,59,24.60
2015,07,04,12,00,24.60
2015,07,04,12,01,24.60
2015,07,04,12,02,24.60
2015,07,04,12,03,24.60
2015,07,04,12,04,24.60
2015,07,04,12,05,24.60
2015,07,04,12,06,24.70
2015,07,04,12,07,24.70
2015,07,04,12,08,24.80
2015,07,04,12,09,24.80
2015,07,04,12,10,24.90
2015,07,04,12,11,24.90
2015,07,04,12,12,25.00
2015,07,04,12,13,25.00
2015,07,04,12,14,25.10
2015,07,04,12,15,25.10
2015,07,04,12,16,25.30
2015,07,04,12,17,25.30
2015,07,04,12,18,25.30
2015,07,04,12,19,25.20
2015,07,04,12,20,25.20
2015,07,04,12,21,25.30
2015,07,04,12,22,25.30
2015,07,04,12,23,25.40
2015,07,04,12,24,25.50
2015,07,04,12,25,25.70
2015,07,04,12,26,25.80
2015,07,04,12,27,25.90
2015,07,04,12,28,26.10
2015,07,04,12,29,26.20
2015,07,04,12,30,26.30
2015,07,04,12,31,26.20
2015,07,04,12,32,26.20
2015,07,04,12,33,26.20
2015,07,04,12,34,26.20
2015,07,04,12,35,26.20
2015,07,04,12,36,26.10
2015,07,04,12,37,26.10
2015,07,04,12,38,26.10
2015,07,04,12,39,26.20
2015,07,04,12,40,26.20
2015,07,04,12,41,26.40
2015,07,04,12,42,26.50
2015,07,04,12,43,26.50
2015,07,04,12,44,26.50
2015,07,04,12,45,26.50
2015,07,04,12,46,26.50
2015,07,04,12,47,26.50
2015,07,04,12,48,26.50
2015,07,04,12,49,26.40
2015,07,04,12,50,26.50
2015,07,04,12,51,26.60
2015,07,04,12,52,26.60
2015,07,04,12,53,26.70
2015,07,04,12,54,26.70
2015,07,04,12,55,26.70
2015,07,04,12,56,26.70
2015,07,04,12,57,26.70
2015,07,04,12,58,26.70
2015,07,04,12,59,26.70
2015,07,04,13,00,26.80
2015,07,04,13,01,26.80
2015,07,04,13,02,26.80
2015,07,04,13,03,26.80
2015,07,04,13,04,26.80
2015,07,04,13,05,26.80
2015,07,04,13,06,26.80
2015,07,04,13,07,26.80
2015,07,04,13,08,26.90
2015,07,04,13,09,26.90
2015,07,04,13,10,26.80
2015,07,04,13,11,26.80
2015,07,04,13,12,26.80
2015,07,04,13,13,26.90
2015,07,04,13,14,26.90
2015,07,04,13,15,26.90
2015,07,04,13,16,26.90
2015,07,04,13,17,26.80
2015,07,04,13,18,26.80
2015,07,04,13,19,26.80
2015,07,04,13,20,26.80
2015,07,04,13,21,26.80
2015,07,04,13,22,26.80
2015,07,04,13,23,26.90
2015,07,04,13,24,26.90
2015,07,04,13,25,26.90
2015,07,04,13,26,26.90
2015,07,04,13,27,27.00
2015,07,04,13,28,27.00
2015,07,04,13,29,27.00
2015,07,04,13,30,27.00
2015,07,04,13,31,27.10
2015,07,04,13,32,27.10
2015,07,04,13,33,27.20
2015,07,04,13,34,27.40
2015,07,04,13,35,27.50
2015,07,04,13,36,27.60
2015,07,04,13,37,27.70
2015,07,04,13,38,27.80
2015,07,04,13,39,27.70
2015,07,04,13,40,27.60
2015,07,04,13,41,27.60
2015,07,04,13,42,27.60
2015,07,04,13,43,27.60
2015,07,04,13,44,27.70
2015,07,04,13,45,27.80
2015,07,04,13,46,27.80
2015,07,04,13,47,27.80
2015,07,04,13,48,27.80
2015,07,04,13,49,27.80
2015,07,04,13,50,27.80
2015,07,04,13,51,27.90
2015,07,04,13,52,27.90
2015,07,04,13,53,27.80
2015,07,04,13,54,27.80
2015,07,04,13,55,27.80
2015,07,04,13,56,27.80
2015,07,04,13,57,27.80
2015,07,04,13,58,27.80
2015,07,04,13,59,27.90
2015,07,04,14,00,27.90
2015,07,04,14,01,28.00
2015,07,04,14,02,27.90
2015,07,04,14,03,27.80
2015,07,04,14,04,27.80
2015,07,04,14,05,27.90
2015,07,04,14,06,27.90
2015,07,04,14,07,28.00
2015,07,04,14,08,28.10
2015,07,04,14,09,28.10
2015,07,04,14,10,28.10
2015,07,04,14,11,28.20
2015,07,04,14,12,28.30
2015,07,04,14,13,28.30
2015,07,04,14,14,28.40
2015,07,04,14,15,28.40
2015,07,04,14,16,28.50
2015,07,04,14,17,28.50
2015,07,04,14,18,28.50
2015,07,04,14,19,28.60
2015,07,04,14,20,28.60
2015,07,04,14,21,28.60
2015,07,04,14,22,28.70
2015,07,04,14,23,28.70
2015,07,04,14,24,28.90
2015,07,04,14,25,29.00
2015,07,04,14,26,29.00
2015,07,04,14,27,29.10
2015,07,04,14,28,29.20
2015,07,04,14,29,29.20
2015,07,04,14,30,29.20
2015,07,04,14,31,29.20
2015,07,04,14,32,29.20
2015,07,04,14,33,29.20
2015,07,04,14,34,29.20
2015,07,04,14,35,29.30
2015,07,04,14,36,29.30
2015,07,04,14,37,29.40
2015,07,04,14,38,29.30
2015,07,04,14,39,29.20
2015,07,04,14,40,29.20
2015,07,04,14,41,29.20
2015,07,04,14,42,29.20
2015,07,04,14,43,29.30
2015,07,04,14,44,29.40
2015,07,04,14,45,29.40
2015,07,04,14,46,29.50
2015,07,04,14,47,29.50
2015,07,04,14,48,29.50
2015,07,04,14,49,29.50
2015,07,04,14,50,29.60
2015,07,04,14,51,29.60
2015,07,04,14,52,29.50
2015,07,04,14,53,29.60
2015,07,04,14,54,29.60
2015,07,04,14,55,29.60
2015,07,04,14,56,29.60
2015,07,04,14,57,29.60
2015,07,04,14,58,29.60
2015,07,04,14,59,29.60
2015,07,04,15,00,29.60
2015,07,04,15,01,29.70
2015,07,04,15,02,29.80
2015,07,04,15,03,29.70
2015,07,04,15,04,29.60
2015,07,04,15,05,29.60
2015,07,04,15,06,29.50
2015,07,04,15,07,29.60
2015,07,04,15,08,29.60
2015,07,04,15,09,29.60
2015,07,04,15,10,29.70
2015,07,04,15,11,29.60
2015,07,04,15,12,29.60
2015,07,04,15,13,29.60
2015,07,04,15,14,29.60
2015,07,04,15,15,29.70
2015,07,04,15,16,29.80
2015,07,04,15,17,29.80
2015,07,04,15,18,29.80
2015,07,04,15,19,29.80
2015,07,04,15,20,29.80
2015,07,04,15,21,29.70
2015,07,04,15,22,29.80
2015,07,04,15,23,29.80
2015,07,04,15,24,29.80
2015,07,04,15,25,29.70
2015,07,04,15,26,29.60
2015,07,04,15,27,29.50
2015,07,04,15,28,29.50
2015,07,04,15,29,29.50
2015,07,04,15,30,29.50
2015,07,04,15,31,29.40
2015,07,04,15,32,29.40
2015,07,04,15,33,29.50
2015,07,04,15,34,29.50
2015,07,04,15,35,29.60
2015,07,04,15,36,29.70
2015,07,04,15,37,29.80
2015,07,04,15,38,29.80
2015,07,04,15,39,29.80
2015,07,04,15,40,29.80
2015,07,04,15,41,29.80
2015,07,04,15,42,29.80
2015,07,04,15,43,29.80
2015,07,04,15,44,29.80
2015,07,04,15,45,29.80
2015,07,04,15,46,29.70
2015,07,04,15,47,29.70
2015,07,04,15,48,29.50
2015,07,04,15,49,29.40
2015,07,04,15,50,29.30
2015,07,04,15,51,29.30
2015,07,04,15,52,29.30
2015,07,04,15,53,29.20
2015,07,04,15,54,29.30
2015,07,04,15,55,29.30
2015,07,04,15,56,29.40
2015,07,04,15,57,29.40
2015,07,04,15,58,29.40
2015,07,04,15,59,29.40
2015,07,04,16,00,29.40
2015,07,04,16,01,29.40
2015,07,04,16,02,29.40
2015,07,04,16,03,29.40
2015,07,04,16,04,29.40
2015,07,04,16,05,29.40
2015,07,04,16,06,29.40
2015,07,04,16,07,29.40
2015,07,04,16,08,29.40
2015,07,04,16,09,29.40
2015,07,04,16,10,29.40
2015,07,04,16,11,29.40
2015,07,04,16,12,29.30
2015,07,04,16,13,29.30
2015,07,04,16,14,29.30
2015,07,04,16,15,29.40
2015,07,04,16,16,29.50
2015,07,04,16,17,29.60
2015,07,04,16,18,29.70
2015,07,04,16,19,29.70
2015,07,04,16,20,29.70
2015,07,04,16,21,29.70
2015,07,04,16,22,29.70
2015,07,04,16,23,29.60
2015,07,04,16,24,29.60
2015,07,04,16,25,29.50
2015,07,04,16,26,29.50
2015,07,04,16,27,29.40
2015,07,04,16,28,29.40
2015,07,04,16,29,29.40
2015,07,04,16,30,29.30
2015,07,04,16,31,29.20
2015,07,04,16,32,29.20
2015,07,04,16,33,29.20
2015,07,04,16,34,29.10
2015,07,04,16,35,29.20
2015,07,04,16,36,29.20
2015,07,04,16,37,29.20
2015,07,04,16,38,29.20
2015,07,04,16,39,29.20
2015,07,04,16,40,29.30
2015,07,04,16,41,29.40
2015,07,04,16,42,29.50
2015,07,04,16,43,29.60
2015,07,04,16,44,29.60
2015,07,04,16,45,29.50
2015,07,04,16,46,29.40
2015,07,04,16,47,29.40
2015,07,04,16,48,29.50
2015,07,04,16,49,29.50
2015,07,04,16,50,29.50
2015,07,04,16,51,29.50
2015,07,04,16,52,29.60
2015,07,04,16,53,29.60
2015,07,04,16,54,29.70
2015,07,04,16,55,29.80
2015,07,04,16,56,29.70
2015,07,04,16,57,29.70
2015,07,04,16,58,29.50
2015,07,04,16,59,29.30
2015,07,04,17,00,29.30
2015,07,04,17,01,29.30
2015,07,04,17,02,29.10
2015,07,04,17,03,29.00
2015,07,04,17,04,29.00
2015,07,04,17,05,29.00
2015,07,04,17,06,29.10
2015,07,04,17,07,29.10
2015,07,04,17,08,29.10
2015,07,04,17,09,29.10
2015,07,04,17,10,29.00
2015,07,04,17,11,29.00
2015,07,04,17,12,28.90
2015,07,04,17,13,28.90
2015,07,04,17,14,29.00
2015,07,04,17,15,29.10
2015,07,04,17,16,29.10
2015,07,04,17,17,29.10
2015,07,04,17,18,29.20
2015,07,04,17,19,29.20
2015,07,04,17,20,29.20
2015,07,04,17,21,29.20
2015,07,04,17,22,29.20
2015,07,04,17,23,29.20
2015,07,04,17,24,29.30
2015,07,04,17,25,29.30
2015,07,04,17,26,29.30
2015,07,04,17,27,29.20
2015,07,04,17,28,29.10
2015,07,04,17,29,29.10
2015,07,04,17,30,28.90
2015,07,04,17,31,28.90
2015,07,04,17,32,28.80
2015,07,04,17,33,28.80
2015,07,04,17,34,28.90
2015,07,04,17,35,28.90
2015,07,04,17,36,29.00
2015,07,04,17,37,29.00
2015,07,04,17,38,29.10
2015,07,04,17,39,29.10
2015,07,04,17,40,29.10
2015,07,04,17,41,29.10
2015,07,04,17,42,29.10
2015,07,04,17,43,29.10
2015,07,04,17,44,29.10
2015,07,04,17,45,29.10
2015,07,04,17,46,29.00
2015,07,04,17,47,28.90
2015,07,04,17,48,28.80
2015,07,04,17,49,28.90
2015,07,04,17,50,28.90
2015,07,04,17,51,28.90
2015,07,04,17,52,28.90
2015,07,04,17,53,28.90
2015,07,04,17,54,28.90
2015,07,04,17,55,28.90
2015,07,04,17,56,28.90
2015,07,04,17,57,28.80
2015,07,04,17,58,28.80
2015,07,04,17,59,28.80
2015,07,04,18,00,28.80
2015,07,04,18,01,28.80
2015,07,04,18,02,28.80
2015,07,04,18,03,28.80
2015,07,04,18,04,28.80
2015,07,04,18,05,28.80
2015,07,04,18,06,28.80
2015,07,04,18,07,28.90
2015,07,04,18,08,28.90
2015,07,04,18,09,28.90
2015,07,04,18,10,28.90
2015,07,04,18,11,29.00
2015,07,04,18,12,29.00
2015,07,04,18,13,29.00
2015,07,04,18,14,28.90
2015,07,04,18,15,28.80
2015,07,04,18,16,28.70
2015,07,04,18,17,28.70